TimeCDT,TemperatureF,Dew PointF,Humidity,Sea Level PressureIn,VisibilityMPH,Wind Direction,Wind SpeedMPH,Gust SpeedMPH,PrecipitationIn,Events,Conditions,WindDirDegrees,DateUTC
12:15 AM,44.6,42.8,93,29.76,5.0,WNW,3.5,-,N/A,,Overcast,290,2012-10-20 05:15:00
12:36 AM,44.6,42.8,93,29.76,1.8,West,8.1,-,N/A,,Overcast,270,2012-10-20 05:36:00
12:55 AM,44.6,42.8,93,29.76,0.5,WNW,6.9,-,N/A,Fog,Fog,290,2012-10-20 05:55:00
1:15 AM,44.6,42.8,93,29.76,0.2,WNW,6.9,-,N/A,Fog,Fog,290,2012-10-20 06:15:00
1:55 AM,44.6,42.8,93,29.76,3.0,WNW,4.6,-,N/A,,Overcast,290,2012-10-20 06:55:00
2:15 AM,44.6,42.8,93,29.76,5.0,West,4.6,-,N/A,,Overcast,280,2012-10-20 07:15:00
2:36 AM,44.6,42.8,93,29.76,3.0,West,3.5,-,N/A,,Overcast,280,2012-10-20 07:36:00
2:55 AM,44.6,42.8,93,29.76,7.0,Calm,Calm,-,N/A,,Overcast,0,2012-10-20 07:55:00
3:07 AM,44.6,42.8,93,29.77,7.0,West,3.5,-,N/A,,Overcast,280,2012-10-20 08:07:00
3:21 AM,44.6,42.8,93,29.77,7.0,West,5.8,-,N/A,,Overcast,270,2012-10-20 08:21:00
3:41 AM,42.8,41.0,93,29.76,7.0,WNW,4.6,-,N/A,,Overcast,290,2012-10-20 08:41:00
3:56 AM,42.8,41.0,93,29.76,7.0,West,4.6,-,N/A,,Overcast,280,2012-10-20 08:56:00
4:15 AM,42.8,41.0,93,29.76,5.0,WNW,4.6,-,N/A,,Overcast,290,2012-10-20 09:15:00
4:35 AM,42.8,41.0,93,29.76,5.0,West,3.5,-,N/A,,Overcast,280,2012-10-20 09:35:00
4:56 AM,42.8,41.0,93,29.76,5.0,West,3.5,-,N/A,,Overcast,280,2012-10-20 09:56:00
5:15 AM,42.8,41.0,93,29.76,5.0,Calm,Calm,-,N/A,,Overcast,0,2012-10-20 10:15:00
5:35 AM,42.8,41.0,93,29.76,5.0,Calm,Calm,-,N/A,,Overcast,0,2012-10-20 10:35:00
5:55 AM,42.8,41.0,93,29.76,4.0,Calm,Calm,-,N/A,,Overcast,0,2012-10-20 10:55:00
6:15 AM,42.8,41.0,93,29.77,4.0,West,3.5,-,N/A,,Overcast,260,2012-10-20 11:15:00
6:35 AM,42.8,41.0,93,29.77,4.0,Calm,Calm,-,N/A,,Overcast,0,2012-10-20 11:35:00
6:55 AM,42.8,41.0,93,29.78,3.0,Calm,Calm,-,N/A,,Overcast,0,2012-10-20 11:55:00
7:15 AM,42.8,41.0,93,29.77,4.0,Calm,Calm,-,N/A,,Overcast,0,2012-10-20 12:15:00
7:35 AM,42.8,41.0,93,29.77,4.0,Calm,Calm,-,N/A,,Overcast,0,2012-10-20 12:35:00
7:55 AM,42.8,41.0,93,29.78,2.5,SSE,3.5,-,N/A,,Overcast,150,2012-10-20 12:55:00
8:15 AM,42.8,41.0,93,29.79,1.5,SSE,4.6,-,N/A,,Overcast,160,2012-10-20 13:15:00
8:35 AM,42.8,41.0,93,29.80,3.0,SSE,5.8,-,N/A,,Overcast,160,2012-10-20 13:35:00
8:55 AM,42.8,41.0,93,29.79,0.5,South,3.5,-,N/A,Fog,Fog,170,2012-10-20 13:55:00
9:15 AM,42.8,41.0,93,29.80,1.8,Calm,Calm,-,N/A,,Overcast,0,2012-10-20 14:15:00
9:36 AM,42.8,41.0,93,29.80,5.0,Calm,Calm,-,N/A,,Overcast,0,2012-10-20 14:36:00
9:55 AM,44.6,42.8,93,29.80,7.0,Calm,Calm,-,N/A,,Overcast,0,2012-10-20 14:55:00
10:15 AM,44.6,42.8,93,29.81,3.0,SSW,3.5,-,N/A,,Overcast,200,2012-10-20 15:15:00
10:36 AM,46.4,42.8,87,29.80,5.0,SSW,3.5,-,N/A,,Overcast,210,2012-10-20 15:36:00
10:55 AM,46.4,42.8,87,29.80,10.0,SSW,4.6,-,N/A,,Overcast,200,2012-10-20 15:55:00
11:15 AM,46.4,42.8,87,29.79,10.0,SSW,3.5,-,N/A,,Overcast,200,2012-10-20 16:15:00
11:35 AM,48.2,42.8,82,29.79,10.0,South,6.9,-,N/A,,Overcast,190,2012-10-20 16:35:00
11:55 AM,48.2,42.8,82,29.79,10.0,South,5.8,-,N/A,,Overcast,190,2012-10-20 16:55:00
12:15 PM,50.0,42.8,76,29.78,10.0,South,5.8,-,N/A,,Overcast,190,2012-10-20 17:15:00
12:35 PM,50.0,42.8,76,29.78,7.0,South,5.8,-,N/A,,Overcast,180,2012-10-20 17:35:00
12:56 PM,51.8,44.6,76,29.76,5.0,South,6.9,-,N/A,,Haze,170,2012-10-20 17:56:00
1:15 PM,51.8,44.6,76,29.76,10.0,South,6.9,-,N/A,,Overcast,180,2012-10-20 18:15:00
1:35 PM,51.8,44.6,76,29.76,10.0,South,4.6,-,N/A,,Overcast,180,2012-10-20 18:35:00
1:55 PM,51.8,44.6,76,29.75,10.0,South,5.8,-,N/A,,Overcast,170,2012-10-20 18:55:00
2:15 PM,51.8,44.6,76,29.76,10.0,South,5.8,-,N/A,,Overcast,170,2012-10-20 19:15:00
2:35 PM,51.8,44.6,76,29.75,10.0,South,4.6,-,N/A,,Overcast,170,2012-10-20 19:35:00
2:56 PM,51.8,44.6,76,29.75,10.0,South,6.9,-,N/A,,Overcast,170,2012-10-20 19:56:00
3:15 PM,51.8,44.6,76,29.75,10.0,South,3.5,-,N/A,,Overcast,190,2012-10-20 20:15:00
3:35 PM,51.8,44.6,76,29.75,10.0,South,5.8,-,N/A,,Overcast,170,2012-10-20 20:35:00
3:56 PM,51.8,44.6,76,29.74,10.0,SSE,9.2,-,N/A,,Overcast,160,2012-10-20 20:56:00
4:15 PM,51.8,44.6,76,29.74,10.0,SSE,10.4,-,N/A,,Overcast,160,2012-10-20 21:15:00
4:35 PM,51.8,44.6,76,29.74,10.0,SSE,11.5,-,N/A,,Overcast,150,2012-10-20 21:35:00
4:56 PM,51.8,44.6,76,29.74,10.0,SSE,11.5,17.3,N/A,,Mostly Cloudy,150,2012-10-20 21:56:00
5:15 PM,53.6,44.6,72,29.75,10.0,SSE,10.4,-,N/A,,Scattered Clouds,160,2012-10-20 22:15:00
5:35 PM,51.8,44.6,76,29.75,10.0,SSE,9.2,-,N/A,,Clear,160,2012-10-20 22:35:00
5:56 PM,51.8,44.6,76,29.75,10.0,SE,9.2,-,N/A,,Clear,140,2012-10-20 22:56:00
6:15 PM,51.8,44.6,76,29.74,10.0,SE,9.2,-,N/A,,Clear,140,2012-10-20 23:15:00
6:35 PM,50.0,44.6,82,29.74,10.0,SE,9.2,-,N/A,,Clear,140,2012-10-20 23:35:00
6:56 PM,48.2,44.6,87,29.73,10.0,SE,9.2,-,N/A,,Clear,130,2012-10-20 23:56:00
7:15 PM,48.2,42.8,82,29.74,10.0,SE,9.2,-,N/A,,Clear,130,2012-10-21 00:15:00
7:35 PM,48.2,42.8,82,29.74,10.0,SE,9.2,-,N/A,,Clear,130,2012-10-21 00:35:00
7:56 PM,48.2,44.6,87,29.74,10.0,SE,10.4,-,N/A,,Clear,130,2012-10-21 00:56:00
8:15 PM,48.2,42.8,82,29.75,10.0,SE,10.4,-,N/A,,Clear,130,2012-10-21 01:15:00
8:36 PM,48.2,42.8,82,29.76,10.0,SE,9.2,-,N/A,,Clear,130,2012-10-21 01:36:00
8:55 PM,48.2,42.8,82,29.76,10.0,SE,9.2,-,N/A,,Clear,130,2012-10-21 01:55:00
9:15 PM,48.2,44.6,87,29.76,10.0,SE,12.7,-,N/A,,Clear,130,2012-10-21 02:15:00
9:36 PM,48.2,44.6,87,29.76,10.0,SE,12.7,-,N/A,,Clear,140,2012-10-21 02:36:00
9:55 PM,48.2,42.8,82,29.77,10.0,SE,12.7,-,N/A,,Clear,140,2012-10-21 02:55:00
10:16 PM,48.2,42.8,82,29.76,10.0,SE,13.8,-,N/A,,Clear,140,2012-10-21 03:16:00
10:35 PM,48.2,44.6,87,29.76,10.0,SE,13.8,-,N/A,,Clear,140,2012-10-21 03:35:00
10:55 PM,48.2,44.6,87,29.76,10.0,SE,11.5,-,N/A,,Clear,140,2012-10-21 03:55:00
11:16 PM,48.2,42.8,82,29.75,10.0,SE,13.8,-,N/A,,Clear,140,2012-10-21 04:16:00
11:35 PM,46.4,42.8,87,29.75,10.0,SE,12.7,-,N/A,,Clear,140,2012-10-21 04:35:00
11:55 PM,46.4,42.8,87,29.75,10.0,SE,12.7,-,N/A,,Clear,140,2012-10-21 04:55:00